Location: St. Louis
(38.6270°N, 90.1994°W)
Time: 03:25:38
(UTC-05:00)

ISS - Pass Details

Date: 30 January 2014
Orbit: 402 x 404 km, 51.6° (Epoch: 27 May)

Event Time Altitude Azimuth Distance (km) Brightness Sun altitude
Exits shadow 06:06:32 16° 248° (WSW) 1,165 -1.5 -12.3°
Maximum altitude 06:07:19 17° 230° (SW) 1,112 -1.5 -12.2°
Drops below altitude 10° 06:09:35 10° 187° (S) 1,469 -0.4 -11.7°
Sets 06:12:07 0° 166° (SSE) 2,320 0.9 -11.3°
